Weather History for Russellville, AR

Change the Weather History Date:

Friday, February 14, 2014

  Actual Average (KHOT) Record (KHOT)
Temperature  
Mean Temperature 45 °F -  
Max Temperature 62 °F 59 °F 79 °F (1991)
Min Temperature 28 °F 35 °F 20 °F (1960)
Degree Days  
Heating Degree Days 20    
Moisture  
Dew Point 28 °F    
Average Humidity 61    
Maximum Humidity 85    
Minimum Humidity 26    
Precipitation  
Precipitation 0.00 in - - ()
Sea Level Pressure  
Sea Level Pressure 29.84 in    
Wind  
Wind Speed 4 mph (NW)    
Max Wind Speed 20 mph    
Max Gust Speed 32 mph    
Visibility 10 miles    
Events      
Averages and records for this station are not official NWS values.
T = Trace of Precipitation, MM = Missing Value Source: NWS Daily Summary

Daily Weather History Graph

Daily Weather History Graph

Search for Another Location

Airport:

Trip Planner

Search our weather history database for the weather conditions in past years. The results will help you decide how hot, cold, wet, or windy it might be!

Date:

Astronomy

Feb. 14, 2014 Rise Set
Actual Time 6:59 AM CST 5:53 PM CST
Civil Twilight 6:33 AM CST 6:19 PM CST
Nautical Twilight 6:03 AM CST 6:49 PM CST
Astronomical Twilight 5:34 AM CST 7:19 PM CST
Moon 5:56 PM CST (2/14) 6:28 AM CST (2/14)
Length of Visible Light 11h 46m
Length of Day
10h 54m
Full, 100% of the Moon is Illuminated
Feb 14
Full
Feb 14
Full
Feb 22
Last Quarter
Mar 1
New
Mar 8
First Quarter

Hourly Weather History & Observations

Time (CST) Temp. Windchill Dew Point Humidity Pressure Visibility Wind Dir Wind Speed Gust Speed Precip Events Conditions
12:53 AM 28.9 °F - 25.0 °F 85% 29.82 in 10.0 mi Calm Calm - N/A   Clear
1:53 AM 28.9 °F - 25.0 °F 85% 29.81 in 10.0 mi Calm Calm - N/A   Clear
2:53 AM 28.9 °F - 25.0 °F 85% 29.80 in 10.0 mi Calm Calm - N/A   Clear
3:53 AM 30.0 °F - 26.1 °F 85% 29.77 in 10.0 mi Calm Calm - N/A   Clear
4:53 AM 30.0 °F - 25.0 °F 82% 29.76 in 10.0 mi Calm Calm - N/A   Clear
5:53 AM 30.9 °F - 26.1 °F 82% 29.76 in 10.0 mi Calm Calm - N/A   Clear
6:53 AM 33.1 °F - 28.0 °F 82% 29.74 in 10.0 mi Calm Calm - N/A   Mostly Cloudy
7:53 AM 34.0 °F 31.0 °F 28.0 °F 79% 29.74 in 10.0 mi ENE 3.5 mph - N/A   Clear
8:53 AM 37.9 °F - 30.9 °F 76% 29.74 in 10.0 mi Calm Calm - N/A   Mostly Cloudy
9:53 AM 39.9 °F 35.8 °F 33.1 °F 77% 29.73 in 10.0 mi Variable 5.8 mph - 0.00 in   Overcast
10:53 AM 43.0 °F - 35.1 °F 74% 29.73 in 10.0 mi Calm Calm - N/A   Overcast
11:53 AM 44.1 °F - 34.0 °F 68% 29.73 in 10.0 mi Calm Calm - N/A   Overcast
12:53 PM 50.0 °F - 36.0 °F 59% 29.73 in 10.0 mi WNW 6.9 mph - N/A   Clear
1:53 PM 55.9 °F - 36.0 °F 47% 29.75 in 10.0 mi West 11.5 mph 19.6 mph N/A   Clear
2:53 PM 62.1 °F - 28.0 °F 28% 29.76 in 10.0 mi NNW 18.4 mph 31.1 mph N/A   Clear
3:53 PM 61.0 °F - 26.1 °F 26% 29.79 in 10.0 mi WNW 18.4 mph 32.2 mph N/A   Clear
4:53 PM 59.0 °F - 25.0 °F 27% 29.85 in 10.0 mi NW 19.6 mph 26.5 mph N/A   Clear
5:53 PM 54.0 °F - 26.1 °F 34% 29.89 in 10.0 mi WNW 15.0 mph - N/A   Clear
6:53 PM 51.1 °F - 25.0 °F 36% 29.94 in 10.0 mi NW 17.3 mph 28.8 mph N/A   Clear
7:53 PM 48.9 °F - 26.1 °F 41% 29.99 in 10.0 mi NW 10.4 mph - N/A   Clear
8:53 PM 45.0 °F 37.9 °F 26.1 °F 48% 30.02 in 10.0 mi NNW 16.1 mph 20.7 mph N/A   Clear
9:53 PM 42.1 °F 35.2 °F 24.1 °F 49% 30.05 in 10.0 mi North 12.7 mph - N/A   Clear
10:53 PM 39.9 °F 33.4 °F 24.1 °F 53% 30.07 in 10.0 mi NNW 10.4 mph - N/A   Clear
11:53 PM 37.0 °F 32.4 °F 25.0 °F 62% 30.10 in 10.0 mi NNW 5.8 mph - N/A   Clear